map of YKN home
YKN - Airport
Location
City:  Yankton, South Dakota, United States
Name:Chan Gurney Municipal Airport
ICAO:KYKN
IATA:YKN
FAA LID:YKN

Details
Type:Airport (Airfield)
Use:Public/Civil
Latitude:4255'00"N (42.916694)
Longitude:9723'09"W (-97.385943)
Datum:WGS 1984
Elevation:1306 ft (398 m)
Variation:3.51E (WMM2015v2 magnetic declination)
-0.07 annual change
Runways:2
Longest:6095 × 100 ft (1858 × 30.5 m), paved

Time
Time Zone:UTC-6 (DST-5)
Local Time:

Weather
METAR:KYKN 041356Z AUTO 31021KT 10SM CLR M18/M22 A3004 RMK AO2 PK WND 31028/1300 SLP216 T11831217 FZRANO

Related Locations
Nearby:
Farthest:YAUG: 10597 mi / 17053 km
Augusta [Augusta Airport], WA, AU

Find:

   beyond  
but within

Other Information
Maps:
NOTAMs:
Links:
Sources:

  
  • flag of United States
  • flag of South Dakota
  

Sectional Chart

Flight Planning
at skyvector.com

Satellite Image

Google Maps Satellite view

 

Copyright © 2004-2019 Karl L. Swartz. All rights reserved.
The Great Circle Mapper name and logo are trademarks of the Great Circle Mapper.
All other trademarks mentioned herein belong to their respective owners.
Please see credits for attibutions and further copyright information.

  Follow gcmap on Facebook Follow gcmap on Twitter GCmap on LinkedIn

hCard Microformat

Geo Microformat